This is the latest recevied weather packets stored in our database for station/object KC8P. If no packets are shown the sender has not sent any weather packets the latest 10 day(s).
| Time | Temp. | Humidity | Pressure | Rain* | Wind** | Luminosity | Snow |
|---|---|---|---|---|---|---|---|
| 1778251370 | 12.78° C | 44% | 1011.8 hPa | 0 mm | - | 722 W/m² | - |
| 1778251239 | 12.78° C | 49% | 1011.8 hPa | 0 mm | - | 728 W/m² | - |
| 1778251173 | 12.78° C | 49% | 1011.8 hPa | 0 mm | - | 745 W/m² | - |
| 1778251043 | 13.33° C | 45% | 1011.8 hPa | 0 mm | - | 735 W/m² | - |
| 1778250976 | 13.33° C | 48% | 1011.8 hPa | 0 mm | - | 726 W/m² | - |
| 1778250910 | 13.33° C | 46% | 1011.8 hPa | 0 mm | - | 725 W/m² | - |
| 1778250844 | 13.33° C | 47% | 1011.8 hPa | 0 mm | - | 721 W/m² | - |
| 1778250778 | 12.78° C | 50% | 1011.8 hPa | 0 mm | - | 705 W/m² | - |
| 1778250712 | 12.78° C | 52% | 1011.8 hPa | 0 mm | - | 699 W/m² | - |
| 1778250648 | 12.22° C | 50% | 1012.1 hPa | 0 mm | - | 701 W/m² | - |
| 1778250581 | 12.22° C | 49% | 1011.8 hPa | 0 mm | - | 710 W/m² | - |
| 1778250517 | 12.22° C | 50% | 1011.8 hPa | 0 mm | - | 707 W/m² | - |
| 1778250451 | 12.22° C | 51% | 1011.8 hPa | 0 mm | - | 701 W/m² | - |
| 1778250384 | 12.22° C | 51% | 1012.1 hPa | 0 mm | - | 684 W/m² | - |
| 1778250319 | 12.22° C | 53% | 1011.8 hPa | 0 mm | - | 672 W/m² | - |
| 1778250275 | 12.22° C | 52% | 1011.8 hPa | 0 mm | - | 642 W/m² | - |
| 1778250266 | 12.22° C | 54% | 1011.8 hPa | 0 mm | - | 647 W/m² | - |
| 1778250123 | 11.67° C | 52% | 1011.8 hPa | 0 mm | - | 659 W/m² | - |
| 1778250057 | 11.67° C | 51% | 1011.8 hPa | 0 mm | - | 673 W/m² | - |
| 1778249991 | 11.67° C | 50% | 1011.8 hPa | 0 mm | - | 668 W/m² | - |
| 1778249925 | 11.67° C | 52% | 1011.8 hPa | 0 mm | - | 671 W/m² | - |
| 1778249860 | 11.67° C | 51% | 1011.8 hPa | 0 mm | - | 662 W/m² | - |
| 1778249792 | 12.22° C | 52% | 1011.8 hPa | 0 mm | - | 662 W/m² | - |
| 1778249726 | 12.22° C | 53% | 1011.8 hPa | 0 mm | - | 659 W/m² | - |
| 1778249660 | 12.22° C | 53% | 1011.8 hPa | 0 mm | - | 662 W/m² | - |
* Rain latest hour (hover to see other rain measurements)
** Current wind speed in m/s (hover to see current wind gust speed)